User: anonymous   Login
Location: Unspecified
(0.0000°N, 0.0000°E)
Time: 01:55:35
(UTC+00:00)
Language:

STARLINK-11706 [DTC] - Orbit

View from above orbital plane
View from above orbital plane
View from above satellite
View from above satellite

Ground track
Ground track

The orbit is defined by the following mean orbital elements,

1 63753U          26145.52994172 +.00000000 +00000-0 +83143-3 0 00006
2 63753  43.0001 188.7951 0001463 262.5528  97.5174 15.70859103    09
Epoch (UTC): 25 May 2026 12:43:06
Eccentricity: 0.0001463
inclination: 43.0001°
perigee height: 355 km
apogee height: 357 km
right ascension of ascending node: 188.7951°
argument of perigee: 262.5528°
revolutions per day: 15.70859103
mean anomaly at epoch: 97.5174°

The dashed part of the orbit path shows where the satellite is in the earth's shadow,  

DLR